[[{"header":{"parameterUnit":"m.s-1","parameterCategory":2,"la1":30.2991,"la2":30.254,"lo1":-89.0895,"lo2":-89.0444,"dy":0.0017,"dx":0.0017,"nx":28,"ny":28,"refTime":"2025-05-27T21:00:00:Z","depth":"0","parameterNumber":2,"parameterNumberName":"U-component_of_CURRENTS"},"data":[0,0,0,0,0,0,0,0,0,0,0,0,0,0,0,0,0,0,0,0,0,0,0,0,0,0,0,0,0,0,0,0,0,0,0,0,0,0,0,0,0,0,0,0,0,0,0,0,0,0,0,0,0,0,0,0,0,0,0.2236,0.2237,0,0.2257,0.2257,0.2257,0.2236,0.2236,0.2235,0.2234,0.224,0.2241,0.2241,0,0,0,0,0,0,0,0,0,0,0,0,0,0.2214,0.2214,0.2236,0.2237,0.2237,0.2257,0.2257,0.2257,0.2236,0.2236,0.2235,0.2234,0.224,0.2241,0.2242,0,0,0,0,0,0,0,0,0,0,0,0,0,0.2226,0.2214,0.2236,0.2231,0.223,0.2257,0.2257,0.2257,0.2237,0.2236,0.2235,0.2234,0.2239,0.2241,0.2242,0.2268,0,0,0.2245,0.2246,0,0,0,0,0,0,0,0,0.2225,0.2227,0.2231,0.2231,0.2231,0.2245,0.2251,0.2261,0.2237,0.2232,0.2234,0.2233,0.2242,0.2243,0.2247,0.2268,0.2268,0.2245,0.2246,0.2246,0.2247,0,0,0,0,0,0,0,0.2224,0.2226,0.2243,0.2232,0.2232,0.2239,0.2239,0.2253,0.2241,0.2233,0.2232,0.2237,0.2242,0.2245,0.2246,0.2269,0.2245,0.2246,0.2247,0.2247,0.232,0.2321,0,0,0,0,0,0,0.2225,0.2225,0.2242,0.2243,0.2228,0.224,0.224,0.224,0.2241,0.2241,0.2238,0.2236,0.2244,0.2245,0.2247,0.2283,0.2246,0.2247,0.2248,0.2319,0.232,0.2322,0,0,0,0,0,0,0.2224,0.2226,0.2241,0.2236,0.2239,0.2242,0.2241,0.2241,0.2244,0.2245,0.2244,0.2242,0.2243,0.2245,0.2264,0.2282,0.2248,0.2249,0.2317,0.2319,0.2321,0.2352,0,0,0,0,0,0,0.2223,0.2226,0.2228,0.2236,0.2239,0.2257,0.2242,0.2242,0.225,0.2248,0.2249,0.2248,0.2243,0.2262,0.2265,0.2283,0.225,0.2316,0.2318,0.232,0.2349,0.2355,0.2359,0,0,0,0,0,0.2222,0.2227,0.2228,0.223,0.2241,0.2258,0.226,0.2258,0.2252,0.2257,0.226,0.2248,0.2279,0.2264,0.2267,0.2286,0.2314,0.2317,0.232,0.2347,0.2354,0.2359,0,0,0,0,0,0,0.222,0.2226,0.2226,0.2233,0.2246,0.2255,0.2262,0.2264,0.2271,0.2269,0.2265,0.2265,0.2291,0.2288,0.2272,0.2316,0.2295,0.2299,0.2315,0.2321,0.2326,0.2323,0.2251,0,0,0,0,0,0.2222,0.2224,0.2237,0.2243,0.225,0.2258,0.2266,0.2268,0.2276,0.2278,0.2278,0.2286,0.2307,0.2311,0.2325,0.2348,0.2356,0.2363,0.2368,0.2372,0.2373,0.2413,0.2422,0.2331,0.2331,0.2331,0,0,0.2223,0.2228,0.2229,0.2243,0.2251,0.2269,0.226,0.2274,0.229,0.2279,0.2295,0.2306,0.2319,0.2346,0.2356,0.2342,0.2404,0.2376,0.2379,0.2378,0.2417,0.2426,0.2434,0.2333,0.2332,0.2332,0,0,0.2229,0.2231,0.2237,0.2251,0.2268,0.2278,0.2285,0.2297,0.2302,0.2327,0.2327,0.2346,0.2368,0.238,0.2392,0.2435,0.2433,0.2441,0.2457,0.2497,0.2504,0.2511,0.2533,0.2542,0.2437,0.2438,0.2438,0,0.2232,0.2239,0.2244,0.2259,0.2272,0.2284,0.2301,0.2316,0.2333,0.2344,0.2335,0.2382,0.2387,0.2429,0.2441,0.2445,0.2462,0.2431,0.2503,0.251,0.2516,0.2537,0.2546,0.2439,0.2439,0.2439,0.2439,0,0.2244,0.2255,0.2262,0.2282,0.2299,0.2316,0.2339,0.2356,0.2366,0.238,0.2418,0.243,0.2455,0.2465,0.2465,0.2516,0.2512,0.2508,0.2485,0.2527,0.2547,0.2555,0.2442,0.2441,0.2441,0.244,0,0,0.224,0.2264,0.2267,0.2278,0.2312,0.2325,0.2361,0.2394,0.2423,0.2437,0.2478,0.2503,0.2506,0.2519,0.2524,0.2551,0.2609,0.2548,0.2549,0.2564,0.2691,0.2654,0.2659,0.2622,0.2624,0.2625,0.2686,0,0.2249,0.227,0.2286,0.2315,0.2329,0.2356,0.2389,0.2422,0.2455,0.2498,0.2518,0.2561,0.2529,0.2554,0.2573,0.2616,0.2634,0.2592,0.2652,0.2653,0.2611,0.2669,0.2658,0.2708,0.2694,0.2696,0.2697,0,0.2255,0.2269,0.229,0.2327,0.2337,0.2361,0.2416,0.2449,0.2516,0.2545,0.2583,0.2609,0.2657,0.2629,0.269,0.2668,0.2676,0.2693,0.2696,0.2655,0.2633,0.2665,0.2725,0.2685,0.271,0.2709,0.2708,0,0.2238,0.2273,0.2286,0.2298,0.2343,0.2364,0.2397,0.246,0.2497,0.2585,0.2633,0.2679,0.2725,0.2746,0.2763,0.2744,0.2832,0.2811,0.2775,0.2772,0.277,0.2763,0.2793,0.2846,0.2845,0.2845,0.2845,0,0.2237,0.225,0.2278,0.2286,0.2313,0.2354,0.2399,0.2448,0.2529,0.2585,0.2651,0.271,0.2761,0.2811,0.2804,0.282,0.2861,0.2791,0.2794,0.2779,0.2773,0.2742,0.2714,0.2848,0.2847,0.2847,0.2846,0,0.2214,0.2233,0.2247,0.2287,0.2302,0.2321,0.239,0.2428,0.2519,0.2606,0.2642,0.2758,0.2831,0.286,0.2917,0.2879,0.2814,0.288,0.2849,0.2846,0.2757,0.273,0.2472,0.2432,0.2863,0.2863,0.2863,0,0.2202,0.2205,0.2233,0.2237,0.2255,0.229,0.2318,0.2408,0.2459,0.2622,0.2665,0.2785,0.2846,0.2918,0.291,0.291,0.2792,0.2875,0.2824,0.2761,0.2735,0.246,0.2428,0.2839,0.2839,0.2838,0.2838,0,0.2179,0.2184,0.2192,0.22,0.2221,0.2246,0.2302,0.2339,0.2458,0.2541,0.2657,0.2731,0.2843,0.2868,0.2888,0.2873,0.2739,0.2862,0.2827,0.2742,0.2417,0.2379,0.2775,0.2834,0.2834,0.2835,0.2835,0.2835,0.2156,0.2149,0.2155,0.2159,0.2174,0.2193,0.2195,0.2269,0.2337,0.2444,0.2568,0.2657,0.2822,0.2861,0.2819,0.2797,0.2666,0.2755,0.2737,0.2465,0.2387,0.2752,0.2789,0.2789,0.2789,0.2789,0.2789,0,0.2126,0.2119,0.2117,0.2113,0.2098,0.2132,0.2171,0.2159,0.2198,0.2345,0.2424,0.2597,0.2667,0.2754,0.2813,0.2722,0.2516,0.2653,0.2333,0.2325,0.2726,0.2694,0.2676,0.2676,0.2676,0.2676,0.2676,0.2676,0.2111,0.2091,0.2084,0.2039,0.2028,0.1994,0.1994,0.1991,0.2063,0.2138,0.2242,0.2356,0.2582,0.2726,0.27,0.2638,0.2403,0.2217,0.218,0.258,0.2588,0.2596,0.2561,0.2515,0.2515,0.1683,0.1677,0.1673]},{"header":{"parameterUnit":"m.s-1","parameterCategory":2,"la1":30.2991,"la2":30.254,"lo1":-89.0895,"lo2":-89.0444,"dy":0.0017,"dx":0.0017,"nx":28,"ny":28,"refTime":"2025-05-27T21:00:00:Z","depth":"0","parameterNumber":3,"parameterNumberName":"V-component_of_CURRENTS"},"data":[0,0,0,0,0,0,0,0,0,0,0,0,0,0,0,0,0,0,0,0,0,0,0,0,0,0,0,0,0,0,0,0,0,0,0,0,0,0,0,0,0,0,0,0,0,0,0,0,0,0,0,0,0,0,0,0,0,0,0.0409,0.0409,0,0.04,0.04,0.04,0.038,0.0379,0.0379,0.0379,0.033,0.033,0.0329,0,0,0,0,0,0,0,0,0,0,0,0,0,0.0368,0.0369,0.0409,0.0409,0.0409,0.04,0.04,0.04,0.038,0.0379,0.0379,0.0378,0.0331,0.033,0.0328,0,0,0,0,0,0,0,0,0,0,0,0,0,0.0374,0.0369,0.0409,0.0399,0.0398,0.04,0.04,0.04,0.038,0.0379,0.0379,0.0378,0.0331,0.033,0.0328,0.0329,0,0,0.0324,0.0323,0,0,0,0,0,0,0,0,0.0374,0.0376,0.04,0.0399,0.0398,0.0391,0.0368,0.0375,0.038,0.0386,0.0379,0.0378,0.0348,0.0345,0.0344,0.0327,0.0325,0.0324,0.0323,0.0322,0.0322,0,0,0,0,0,0,0,0.0374,0.0376,0.0405,0.04,0.0399,0.038,0.0381,0.0369,0.0368,0.0385,0.0384,0.0384,0.0347,0.0345,0.0343,0.0324,0.0324,0.0322,0.0322,0.0321,0.0302,0.0302,0,0,0,0,0,0,0.0379,0.0376,0.0405,0.0404,0.0386,0.0382,0.0382,0.0393,0.0369,0.0366,0.0385,0.0383,0.0348,0.0344,0.0341,0.035,0.0322,0.0321,0.032,0.0301,0.0302,0.0302,0,0,0,0,0,0,0.0379,0.0383,0.0405,0.039,0.0391,0.0383,0.0395,0.0393,0.0393,0.037,0.0365,0.0387,0.0348,0.0343,0.0333,0.0347,0.032,0.0319,0.0301,0.0302,0.0302,0.0361,0,0,0,0,0,0,0.0378,0.0383,0.0391,0.0391,0.0393,0.0416,0.0396,0.0394,0.0395,0.0393,0.037,0.0365,0.0347,0.0335,0.0332,0.0345,0.0318,0.0301,0.0301,0.0302,0.0359,0.0364,0.0368,0,0,0,0,0,0.0377,0.0394,0.0392,0.0395,0.0405,0.0416,0.0416,0.0407,0.0395,0.0403,0.0383,0.0366,0.0337,0.0335,0.033,0.0343,0.03,0.0301,0.0302,0.0357,0.0363,0.0368,0,0,0,0,0,0,0.0377,0.0394,0.0391,0.0412,0.0416,0.0413,0.0419,0.0411,0.0403,0.0398,0.0371,0.0365,0.0363,0.0343,0.0341,0.0338,0.0315,0.0315,0.0359,0.0364,0.0369,0.038,0.0317,0,0,0,0,0,0.0383,0.0403,0.0409,0.0425,0.043,0.0424,0.0426,0.0423,0.0415,0.0411,0.0393,0.0374,0.0363,0.0356,0.0342,0.0341,0.0318,0.0345,0.035,0.0354,0.0359,0.0341,0.0344,0.0305,0.0305,0.0305,0,0,0.0386,0.0399,0.0408,0.0427,0.0428,0.0445,0.0424,0.0435,0.0447,0.0407,0.0412,0.039,0.0366,0.0366,0.0363,0.0351,0.0352,0.0355,0.0358,0.0361,0.0342,0.0346,0.0349,0.0305,0.0305,0.0305,0,0,0.0408,0.0416,0.0441,0.0451,0.0463,0.0461,0.0467,0.0467,0.0466,0.047,0.0443,0.0428,0.0412,0.0397,0.0388,0.0408,0.0377,0.0403,0.0436,0.0419,0.0422,0.0425,0.0398,0.0398,0.0405,0.0405,0.0405,0,0.0408,0.0447,0.0448,0.0475,0.0488,0.0472,0.05,0.0499,0.0494,0.0495,0.0479,0.0454,0.0429,0.043,0.0434,0.042,0.0401,0.042,0.0426,0.0428,0.043,0.0401,0.04,0.0408,0.0408,0.0408,0.0407,0,0.0454,0.0482,0.0497,0.0529,0.0541,0.0563,0.0564,0.0567,0.0558,0.0553,0.055,0.0517,0.0499,0.049,0.0469,0.047,0.045,0.0435,0.0415,0.0437,0.0406,0.0404,0.0413,0.0412,0.0411,0.041,0,0,0.0462,0.0519,0.0525,0.0554,0.0574,0.0592,0.0609,0.0624,0.0638,0.0619,0.0635,0.0604,0.0576,0.0563,0.0531,0.0515,0.0504,0.0484,0.0481,0.0462,0.046,0.0464,0.0462,0.0493,0.0493,0.0493,0.0432,0,0.0497,0.0566,0.0581,0.0637,0.0672,0.0667,0.0688,0.0694,0.0689,0.0696,0.066,0.0662,0.0608,0.0605,0.0576,0.0529,0.0502,0.0521,0.0437,0.0434,0.044,0.0461,0.0532,0.0486,0.043,0.043,0.0429,0,0.0539,0.0583,0.0651,0.0706,0.0719,0.0745,0.0775,0.0792,0.0789,0.0785,0.0766,0.0737,0.0709,0.0665,0.0583,0.0599,0.0532,0.0488,0.0485,0.0468,0.0435,0.0454,0.0484,0.0443,0.0426,0.0426,0.0426,0,0.0562,0.0631,0.0691,0.0711,0.0763,0.0789,0.0811,0.0819,0.0846,0.0845,0.0866,0.0809,0.0802,0.0714,0.0611,0.06,0.0523,0.0494,0.0429,0.0427,0.0461,0.0463,0.0448,0.0432,0.0432,0.0432,0.0432,0,0.0602,0.0647,0.071,0.0746,0.081,0.083,0.0887,0.0895,0.0922,0.0973,0.0915,0.0945,0.0818,0.0757,0.0642,0.0535,0.054,0.044,0.0418,0.0482,0.0487,0.043,0.0387,0.043,0.043,0.0431,0.0431,0,0.0621,0.0662,0.0735,0.0804,0.0829,0.0876,0.0949,0.099,0.1007,0.1076,0.1087,0.1051,0.0981,0.084,0.0704,0.0594,0.0467,0.0434,0.0513,0.0502,0.0407,0.0365,0.029,0.0315,0.0358,0.0358,0.0358,0,0.0641,0.0683,0.0779,0.0826,0.0863,0.0934,0.0987,0.1028,0.1086,0.1153,0.1199,0.1155,0.1152,0.0943,0.0745,0.0549,0.0477,0.0472,0.0461,0.0421,0.0357,0.0315,0.034,0.0521,0.0522,0.0523,0.0524,0,0.0673,0.0708,0.077,0.0871,0.0943,0.1027,0.1114,0.1179,0.1247,0.1326,0.1414,0.1421,0.1235,0.1097,0.0821,0.067,0.0486,0.0486,0.0433,0.0479,0.0444,0.0453,0.0526,0.0532,0.0531,0.0531,0.053,0.053,0.0693,0.0742,0.0828,0.0923,0.1006,0.1122,0.1214,0.133,0.1459,0.1616,0.1596,0.1701,0.1475,0.1122,0.0873,0.0561,0.0536,0.0497,0.0445,0.0402,0.0448,0.0535,0.0524,0.0523,0.0522,0.0522,0.0521,0,0.0722,0.0785,0.0875,0.0998,0.1097,0.1141,0.1301,0.1423,0.1616,0.18,0.1906,0.1984,0.1653,0.1309,0.0852,0.0603,0.0508,0.0471,0.0446,0.0472,0.0549,0.0581,0.0598,0.0598,0.0598,0.0598,0.0598,0.0598,0.074,0.0831,0.0885,0.1053,0.1144,0.1304,0.1411,0.1614,0.1806,0.2126,0.2336,0.247,0.2341,0.133,0.0761,0.0595,0.0467,0.0382,0.0331,0.0392,0.0391,0.039,0.0413,0.0394,0.0394,0.0332,0.0331,0.0331]}],[{"header":{"parameterUnit":"m.s-1","parameterCategory":2,"la1":30.2991,"la2":30.254,"lo1":-89.0895,"lo2":-89.0444,"dy":0.0017,"dx":0.0017,"nx":28,"ny":28,"refTime":"2025-05-27T21:00:00:Z","depth":"2","parameterNumber":2,"parameterNumberName":"U-component_of_CURRENTS"},"data":[0,0,0,0,0,0,0,0,0,0,0,0,0,0,0,0,0,0,0,0,0,0,0,0,0,0,0,0,0,0,0,0,0,0,0,0,0,0,0,0,0,0,0,0,0,0,0,0,0,0,0,0,0,0,0,0,0,0,0.2106,0.2106,0,0.2127,0.2128,0.2128,0.2112,0.2111,0.2111,0.211,0.2121,0.2122,0.2123,0,0,0,0,0,0,0,0,0,0,0,0,0,0.2082,0.2082,0.2106,0.2106,0.2107,0.2127,0.2128,0.2128,0.2112,0.2111,0.2111,0.211,0.2121,0.2122,0.2123,0,0,0,0,0,0,0,0,0,0,0,0,0,0.2095,0.2082,0.2106,0.2103,0.2103,0.2127,0.2128,0.2128,0.2112,0.2111,0.2111,0.211,0.2121,0.2122,0.2123,0.2146,0,0,0.2127,0.2127,0,0,0,0,0,0,0,0,0.2094,0.2095,0.2103,0.2103,0.2103,0.2118,0.2123,0.2134,0.2112,0.2107,0.211,0.2109,0.2121,0.2122,0.2125,0.2146,0.2147,0.2127,0.2127,0.2128,0.2128,0,0,0,0,0,0,0,0.2093,0.2095,0.2112,0.2103,0.2104,0.2111,0.2112,0.2125,0.2116,0.2107,0.2106,0.2112,0.2121,0.2124,0.2126,0.2147,0.2127,0.2128,0.2129,0.2129,0.2204,0.2205,0,0,0,0,0,0,0.2094,0.2094,0.2112,0.2113,0.2099,0.2112,0.2113,0.2112,0.2116,0.2117,0.2113,0.2111,0.2123,0.2124,0.2126,0.2167,0.2128,0.2129,0.213,0.2203,0.2204,0.2206,0,0,0,0,0,0,0.2093,0.2095,0.2111,0.2106,0.2109,0.2113,0.2113,0.2113,0.212,0.2121,0.2121,0.212,0.2122,0.2124,0.2145,0.2166,0.213,0.2131,0.2201,0.2203,0.2205,0.2239,0,0,0,0,0,0,0.2092,0.2094,0.2099,0.2106,0.2109,0.2128,0.2114,0.2114,0.2126,0.2124,0.2128,0.2128,0.2122,0.2144,0.2147,0.2167,0.2132,0.22,0.2202,0.2205,0.2237,0.2242,0.2247,0,0,0,0,0,0.2091,0.2097,0.2098,0.2101,0.2113,0.2129,0.2131,0.2131,0.2127,0.2134,0.2139,0.2128,0.2161,0.2146,0.2149,0.217,0.2198,0.2201,0.2204,0.2234,0.2241,0.2247,0,0,0,0,0,0,0.2091,0.2097,0.2098,0.2106,0.2119,0.2127,0.2136,0.2138,0.2148,0.2148,0.2144,0.2145,0.2174,0.217,0.2154,0.22,0.2179,0.2182,0.22,0.2207,0.2212,0.2208,0.2133,0,0,0,0,0,0.2094,0.2098,0.2109,0.2118,0.2124,0.2133,0.2142,0.2144,0.2154,0.2157,0.2158,0.2168,0.219,0.2195,0.2209,0.2234,0.2241,0.2251,0.2256,0.226,0.226,0.23,0.2308,0.2215,0.2215,0.2215,0,0,0.2097,0.2102,0.2104,0.2118,0.2127,0.2144,0.2135,0.2152,0.2168,0.2158,0.2178,0.2189,0.2202,0.223,0.2242,0.2227,0.2291,0.2264,0.2267,0.2265,0.2304,0.2313,0.2321,0.2217,0.2217,0.2217,0,0,0.2106,0.2109,0.2116,0.2129,0.2148,0.2157,0.2164,0.2177,0.2184,0.2211,0.2211,0.2233,0.2256,0.2268,0.2279,0.2324,0.2322,0.2331,0.235,0.2388,0.2396,0.2403,0.2425,0.2434,0.2329,0.2329,0.2329,0,0.2112,0.2119,0.2124,0.2139,0.2152,0.2164,0.2182,0.2197,0.2216,0.2228,0.2221,0.227,0.2276,0.2317,0.233,0.2335,0.2352,0.2323,0.2395,0.2402,0.2408,0.2429,0.2438,0.2331,0.2331,0.233,0.233,0,0.2125,0.2137,0.2145,0.2165,0.2181,0.2199,0.2221,0.224,0.2252,0.2266,0.2307,0.232,0.2346,0.2357,0.2357,0.2408,0.2405,0.24,0.2376,0.2419,0.2439,0.2448,0.2334,0.2333,0.2332,0.2332,0,0,0.2125,0.2148,0.2152,0.2163,0.2196,0.2209,0.2245,0.2278,0.2308,0.2325,0.2365,0.2393,0.2398,0.2411,0.2417,0.2444,0.2504,0.2442,0.2443,0.2458,0.2585,0.2547,0.2552,0.2516,0.2518,0.252,0.258,0,0.2136,0.2157,0.2172,0.2201,0.2215,0.2241,0.2274,0.2307,0.2341,0.2385,0.2405,0.2451,0.2421,0.2448,0.2467,0.2509,0.2529,0.2487,0.2545,0.2546,0.2503,0.2562,0.2347,0.238,0.2589,0.259,0.2591,0,0.2145,0.2157,0.218,0.2214,0.2224,0.2249,0.2303,0.2336,0.2402,0.2433,0.2472,0.2499,0.2548,0.2522,0.2583,0.2562,0.2571,0.2588,0.2591,0.2548,0.2524,0.2371,0.2388,0.2606,0.2604,0.2603,0.2602,0,0.2131,0.2164,0.2177,0.2189,0.2232,0.2254,0.2286,0.2349,0.2386,0.2475,0.2525,0.257,0.2619,0.2638,0.2657,0.2638,0.2724,0.2703,0.2668,0.2665,0.2487,0.2466,0.2739,0.2739,0.2738,0.2738,0.2738,0,0.2131,0.2145,0.2171,0.218,0.2207,0.2246,0.2293,0.2342,0.2423,0.2479,0.2546,0.2603,0.2656,0.2703,0.2696,0.2712,0.2752,0.2684,0.2686,0.2494,0.2473,0.2669,0.266,0.274,0.274,0.274,0.2739,0,0.2112,0.213,0.2144,0.2183,0.2199,0.2219,0.2288,0.2326,0.2419,0.2505,0.2542,0.2654,0.2725,0.2753,0.2809,0.2772,0.2786,0.2771,0.2536,0.251,0.269,0.2682,0.2755,0.2754,0.2754,0.2753,0.2753,0,0.2102,0.2106,0.2133,0.2138,0.2155,0.2193,0.2221,0.231,0.2361,0.2521,0.2562,0.2681,0.2733,0.2802,0.276,0.2749,0.2789,0.2551,0.2473,0.27,0.2696,0.2689,0.2682,0.2249,0.2244,0.2241,0.2238,0,0.2081,0.2087,0.2095,0.2104,0.2125,0.215,0.2207,0.2242,0.2359,0.2438,0.2546,0.2611,0.269,0.2601,0.2607,0.2558,0.2539,0.2479,0.2787,0.2285,0.223,0.2223,0.2232,0.2205,0.2208,0.2211,0.2212,0.2214,0.2061,0.2054,0.2061,0.2066,0.2081,0.2098,0.2101,0.2158,0.2218,0.2289,0.2421,0.2432,0.2471,0.237,0.2284,0.221,0.2391,0.2277,0.2285,0.2298,0.2236,0.2184,0.2137,0.214,0.2142,0.2144,0.2146,0,0.2026,0.2027,0.2024,0.202,0.1996,0.2041,0.2078,0.2041,0.2053,0.2126,0.2172,0.2013,0.1972,0.1995,0.1845,0.1851,0.1783,0.1765,0.1666,0.1702,0.1734,0.1638,0.1383,0.138,0.1378,0.1375,0,0,0.201,0.1986,0.1978,0.193,0.1928,0.1885,0.1884,0.1831,0.1836,0.1773,0.1753,0.1876,0.1969,0.1658,0.1619,0.1485,0.1568,0.1409,0.2031,0.1954,0.1981,0.2051,0.195,0,0,0,0,0]},{"header":{"parameterUnit":"m.s-1","parameterCategory":2,"la1":30.2991,"la2":30.254,"lo1":-89.0895,"lo2":-89.0444,"dy":0.0017,"dx":0.0017,"nx":28,"ny":28,"refTime":"2025-05-27T21:00:00:Z","depth":"2","parameterNumber":3,"parameterNumberName":"V-component_of_CURRENTS"},"data":[0,0,0,0,0,0,0,0,0,0,0,0,0,0,0,0,0,0,0,0,0,0,0,0,0,0,0,0,0,0,0,0,0,0,0,0,0,0,0,0,0,0,0,0,0,0,0,0,0,0,0,0,0,0,0,0,0,0,0.0339,0.0339,0,0.033,0.033,0.033,0.0312,0.0311,0.0311,0.0311,0.0265,0.0264,0.0263,0,0,0,0,0,0,0,0,0,0,0,0,0,0.0299,0.03,0.0339,0.0339,0.0339,0.033,0.033,0.033,0.0312,0.0311,0.0311,0.0311,0.0265,0.0264,0.0263,0,0,0,0,0,0,0,0,0,0,0,0,0,0.0305,0.0301,0.0339,0.033,0.0329,0.033,0.033,0.033,0.0312,0.0311,0.0311,0.031,0.0266,0.0264,0.0263,0.0262,0,0,0.0259,0.0258,0,0,0,0,0,0,0,0,0.0305,0.0307,0.0331,0.033,0.0329,0.0322,0.0299,0.0306,0.0312,0.0317,0.0311,0.031,0.0282,0.0279,0.0277,0.026,0.0258,0.0258,0.0258,0.0257,0.0257,0,0,0,0,0,0,0,0.0305,0.0307,0.0335,0.0331,0.033,0.0312,0.0312,0.03,0.0301,0.0317,0.0316,0.0316,0.0281,0.0279,0.0276,0.0258,0.0258,0.0257,0.0256,0.0256,0.0237,0.0237,0,0,0,0,0,0,0.031,0.0307,0.0335,0.0334,0.0317,0.0313,0.0314,0.0324,0.0301,0.0298,0.0316,0.0315,0.0282,0.0278,0.0274,0.0284,0.0257,0.0256,0.0255,0.0236,0.0237,0.0237,0,0,0,0,0,0,0.031,0.0314,0.0335,0.032,0.0322,0.0314,0.0326,0.0324,0.0325,0.0302,0.0297,0.032,0.0281,0.0276,0.0268,0.0282,0.0255,0.0254,0.0236,0.0236,0.0237,0.0296,0,0,0,0,0,0,0.0309,0.0314,0.0322,0.0321,0.0323,0.0345,0.0327,0.0324,0.0326,0.0325,0.0303,0.0298,0.028,0.027,0.0266,0.0279,0.0253,0.0235,0.0236,0.0237,0.0294,0.0299,0.0303,0,0,0,0,0,0.0308,0.0325,0.0323,0.0326,0.0336,0.0346,0.0346,0.0337,0.0327,0.0335,0.0316,0.0299,0.0271,0.0269,0.0265,0.0278,0.0235,0.0236,0.0237,0.0292,0.0298,0.0303,0,0,0,0,0,0,0.031,0.0325,0.0322,0.0343,0.0347,0.0344,0.0349,0.0342,0.0334,0.0331,0.0304,0.0299,0.0297,0.0277,0.0276,0.0273,0.025,0.025,0.0294,0.0299,0.0304,0.0314,0.0251,0,0,0,0,0,0.0315,0.0335,0.034,0.0356,0.0361,0.0355,0.0357,0.0354,0.0347,0.0344,0.0326,0.0308,0.0297,0.029,0.0276,0.0276,0.0254,0.028,0.0284,0.0289,0.0294,0.0275,0.0279,0.024,0.024,0.024,0,0,0.0319,0.0331,0.034,0.0358,0.0359,0.0376,0.0355,0.0366,0.0379,0.0339,0.0346,0.0324,0.03,0.03,0.0297,0.0286,0.0287,0.029,0.0293,0.0296,0.0277,0.0281,0.0284,0.024,0.024,0.024,0,0,0.0341,0.0348,0.0373,0.0383,0.0394,0.0392,0.0398,0.0399,0.0398,0.0403,0.0376,0.0362,0.0347,0.0332,0.0323,0.0343,0.0312,0.0338,0.0371,0.0354,0.0357,0.0359,0.0334,0.0334,0.034,0.034,0.034,0,0.0342,0.038,0.038,0.0406,0.042,0.0404,0.0431,0.043,0.0426,0.0427,0.0413,0.0388,0.0364,0.0363,0.0369,0.0354,0.0336,0.0355,0.0361,0.0363,0.0364,0.0337,0.0336,0.0343,0.0343,0.0343,0.0342,0,0.0386,0.0414,0.0429,0.046,0.0471,0.0493,0.0494,0.0498,0.049,0.0485,0.0483,0.045,0.0433,0.0424,0.0403,0.0405,0.0385,0.037,0.035,0.0372,0.0342,0.034,0.0347,0.0346,0.0346,0.0345,0,0,0.0396,0.0451,0.0457,0.0485,0.0505,0.0523,0.0539,0.0553,0.0568,0.055,0.0566,0.0535,0.0509,0.0496,0.0465,0.0448,0.0439,0.0418,0.0416,0.0398,0.0396,0.0398,0.0395,0.0427,0.0427,0.0427,0.037,0,0.043,0.0498,0.0512,0.0567,0.0601,0.0597,0.0617,0.0623,0.0618,0.0626,0.059,0.0593,0.054,0.0538,0.0509,0.0463,0.0437,0.0455,0.0372,0.037,0.0373,0.0395,0.0372,0.032,0.0367,0.0367,0.0367,0,0.0472,0.0515,0.0582,0.0635,0.0648,0.0674,0.0704,0.0721,0.0718,0.0714,0.0696,0.0668,0.064,0.0597,0.0516,0.0532,0.0467,0.0424,0.042,0.0401,0.0368,0.0305,0.0314,0.0363,0.0363,0.0364,0.0364,0,0.0496,0.0564,0.0622,0.0642,0.0693,0.0719,0.074,0.0749,0.0776,0.0775,0.0796,0.074,0.0734,0.0646,0.0545,0.0535,0.0458,0.0429,0.0364,0.0362,0.0316,0.0311,0.0369,0.0369,0.0369,0.0369,0.0369,0,0.0536,0.0581,0.0642,0.0678,0.0742,0.076,0.0818,0.0827,0.0853,0.0905,0.0847,0.0875,0.075,0.0689,0.0575,0.0469,0.0474,0.0376,0.0354,0.0336,0.0334,0.0349,0.0347,0.0367,0.0367,0.0368,0.0368,0,0.0557,0.0596,0.0669,0.0737,0.0761,0.0808,0.0882,0.0923,0.094,0.1009,0.102,0.0982,0.0911,0.0772,0.0637,0.0528,0.0414,0.0369,0.0354,0.0333,0.0318,0.032,0.0294,0.0294,0.0293,0.0293,0.0293,0,0.0577,0.0618,0.0713,0.0761,0.0798,0.0869,0.0922,0.0963,0.1021,0.1085,0.113,0.1085,0.1075,0.0865,0.0654,0.0455,0.0427,0.0308,0.0284,0.0332,0.0313,0.0315,0.0317,0.0235,0.0234,0.0234,0.0233,0,0.0611,0.0645,0.0707,0.0807,0.088,0.0964,0.1051,0.1115,0.1182,0.1254,0.1335,0.1334,0.1134,0.0932,0.0652,0.05,0.0338,0.0294,0.0345,0.0271,0.0275,0.0257,0.0261,0.0229,0.0229,0.023,0.023,0.023,0.0632,0.0681,0.0767,0.0861,0.0945,0.106,0.1152,0.1253,0.1374,0.1487,0.1477,0.1479,0.1218,0.0868,0.0594,0.0306,0.0344,0.0229,0.023,0.0232,0.025,0.0255,0.0207,0.0207,0.0207,0.0207,0.0208,0,0.0659,0.0726,0.0815,0.0938,0.1033,0.1081,0.1239,0.1337,0.1503,0.1583,0.165,0.1412,0.1168,0.0871,0.0453,0.0217,0.0166,0.0117,0.0107,0.0114,0.012,0.0131,0.0056,0.0055,0.0054,0.0053,0,0,0.0678,0.0767,0.082,0.0986,0.108,0.1232,0.1338,0.1488,0.1588,0.1679,0.1679,0.1617,0.1276,0.0937,0.0578,0.0332,0.0277,0.0262,0.0409,0.0447,0.0455,0.0207,0.0235,0,0,0,0,0]}],[{"header":{"parameterUnit":"m.s-1","parameterCategory":2,"la1":30.2991,"la2":30.254,"lo1":-89.0895,"lo2":-89.0444,"dy":0.0017,"dx":0.0017,"nx":28,"ny":28,"refTime":"2025-05-27T21:00:00:Z","depth":"4","parameterNumber":2,"parameterNumberName":"U-component_of_CURRENTS"},"data":[0,0,0,0,0,0,0,0,0,0,0,0,0,0,0,0,0,0,0,0,0,0,0,0,0,0,0,0,0,0,0,0,0,0,0,0,0,0,0,0,0,0,0,0,0,0,0,0,0,0,0,0,0,0,0,0,0,0,0.1178,0.1179,0,0.123,0.123,0.1231,0.1271,0.1271,0.1272,0.1272,0.1336,0.1338,0.1339,0,0,0,0,0,0,0,0,0,0,0,0,0,0.1129,0.1129,0.1178,0.1179,0.118,0.123,0.123,0.1231,0.1271,0.1271,0.1272,0.1272,0.1336,0.1337,0.1339,0,0,0,0,0,0,0,0,0,0,0,0,0,0.1161,0.113,0.1178,0.1207,0.121,0.123,0.123,0.1231,0.127,0.1271,0.1272,0.1273,0.1336,0.1337,0.1339,0.1335,0,0,0.1345,0.1346,0,0,0,0,0,0,0,0,0.1159,0.1162,0.1202,0.1205,0.1208,0.1246,0.1237,0.1267,0.127,0.1246,0.1272,0.1273,0.1308,0.1312,0.1318,0.1338,0.1341,0.1345,0.1346,0.1347,0.1347,0,0,0,0,0,0,0,0.1157,0.1161,0.1197,0.1203,0.1207,0.1222,0.1227,0.1243,0.1271,0.1248,0.1251,0.1259,0.131,0.1316,0.1319,0.1342,0.1345,0.1346,0.1348,0.1348,0.1445,0.1447,0,0,0,0,0,0,0.1152,0.1158,0.1196,0.1199,0.1187,0.1223,0.1228,0.1232,0.1271,0.1277,0.1259,0.1261,0.1312,0.1317,0.1322,0.1395,0.1347,0.1349,0.135,0.1444,0.1445,0.1447,0,0,0,0,0,0,0.1151,0.1154,0.1193,0.1181,0.1188,0.1223,0.1226,0.1233,0.1268,0.1279,0.1286,0.1292,0.1313,0.1319,0.1361,0.1395,0.1349,0.1351,0.1442,0.1444,0.1446,0.1492,0,0,0,0,0,0,0.1149,0.1153,0.1169,0.1181,0.1188,0.1221,0.1226,0.1233,0.1271,0.1275,0.1309,0.1314,0.1314,0.1359,0.1363,0.1396,0.1352,0.144,0.1443,0.1446,0.1488,0.1495,0.1501,0,0,0,0,0,0.1147,0.1158,0.1169,0.1175,0.1203,0.1222,0.1228,0.1254,0.1272,0.1289,0.1316,0.1314,0.1379,0.1361,0.1366,0.1401,0.1439,0.1442,0.1445,0.1486,0.1494,0.1501,0,0,0,0,0,0,0.1147,0.1163,0.1176,0.1193,0.1216,0.123,0.1253,0.1271,0.1305,0.1321,0.133,0.1337,0.1387,0.1388,0.1367,0.1437,0.141,0.1415,0.1439,0.1447,0.1453,0.1453,0.1354,0,0,0,0,0,0.1153,0.1167,0.1185,0.1203,0.1216,0.1241,0.1259,0.1279,0.1303,0.1321,0.1344,0.1372,0.1399,0.1419,0.1438,0.1475,0.1482,0.1502,0.1508,0.1513,0.1518,0.1564,0.1575,0.1458,0.1458,0.1458,0,0,0.1159,0.1172,0.1181,0.1205,0.1226,0.1248,0.1255,0.129,0.1317,0.1322,0.1375,0.1397,0.1414,0.1456,0.1479,0.1465,0.155,0.1517,0.1522,0.1523,0.1569,0.158,0.1591,0.146,0.146,0.1459,0,0,0.1169,0.119,0.1204,0.1224,0.126,0.1274,0.1291,0.1323,0.135,0.1398,0.1411,0.1452,0.1494,0.151,0.1523,0.1576,0.1581,0.1591,0.1626,0.1671,0.1681,0.169,0.1708,0.1718,0.1595,0.1595,0.1595,0,0.1182,0.1196,0.1213,0.1233,0.1256,0.1288,0.1313,0.1341,0.1387,0.1414,0.1425,0.1502,0.1517,0.1566,0.1588,0.1591,0.1613,0.1594,0.168,0.1689,0.1697,0.1713,0.1723,0.1598,0.1598,0.1597,0.1597,0,0.1192,0.1218,0.123,0.1264,0.129,0.1319,0.1354,0.1395,0.1437,0.1465,0.1535,0.156,0.1607,0.1621,0.1624,0.1692,0.1686,0.1681,0.1658,0.1711,0.1725,0.1735,0.1602,0.1601,0.16,0.1599,0,0,0.1183,0.1228,0.1237,0.126,0.1311,0.1331,0.1385,0.1435,0.1475,0.1535,0.1592,0.1644,0.1672,0.1688,0.1702,0.1741,0.1815,0.1745,0.1746,0.1759,0.191,0.1772,0.1769,0.1836,0.1838,0.184,0.1894,0,0.1192,0.1226,0.1251,0.1298,0.1319,0.1369,0.1411,0.1467,0.1517,0.1579,0.1632,0.1691,0.1693,0.173,0.1772,0.1811,0.1846,0.18,0.186,0.1861,0.1729,0.1778,0.1847,0.1901,0.1903,0.1905,0.1906,0,0.1191,0.1216,0.1257,0.1314,0.133,0.137,0.1446,0.1489,0.1576,0.1619,0.1691,0.1735,0.1815,0.1806,0.1901,0.1879,0.1902,0.192,0.1923,0.1784,0.1742,0.1839,0.1924,0.1923,0.1922,0.192,0.1919,0,0.1162,0.122,0.1253,0.1274,0.1342,0.1385,0.1434,0.1511,0.1551,0.1657,0.1707,0.1795,0.1852,0.1914,0.1963,0.1951,0.2051,0.2034,0.1923,0.1913,0.2001,0.1991,0.2094,0.2094,0.2094,0.2093,0.2093,0,0.1144,0.1176,0.125,0.1268,0.1318,0.138,0.1438,0.1499,0.1586,0.1632,0.1734,0.1781,0.1889,0.1956,0.1991,0.1985,0.2078,0.1933,0.1922,0.2017,0.2009,0.2007,0.1996,0.2095,0.2095,0.2095,0.2094,0,0.1098,0.1148,0.1188,0.1272,0.1303,0.1343,0.1434,0.1464,0.1568,0.1637,0.1683,0.1797,0.1881,0.196,0.2048,0.1995,0.202,0.1991,0.2083,0.2076,0.1842,0.1833,0.1869,0.1865,0.1861,0.1858,0.1855,0,0.1071,0.1089,0.1178,0.1202,0.1246,0.1311,0.1343,0.1444,0.1473,0.1626,0.1648,0.1773,0.1838,0.1855,0.1938,0.1983,0.196,0.1942,0.1889,0.1835,0.1822,0.1819,0.1815,0.185,0.1849,0.1848,0.1847,0,0.1015,0.106,0.1091,0.114,0.1185,0.1209,0.1275,0.1291,0.1403,0.152,0.1582,0.1638,0.1712,0.1772,0.1812,0.1842,0.1941,0.1903,0.191,0.1861,0.1812,0.1802,0.1803,0.1834,0.1836,0.1837,0.1838,0,0.0974,0.0978,0.1025,0.1058,0.1105,0.1099,0.1141,0.1185,0.1234,0.1414,0.1428,0.1576,0.169,0.1699,0.1746,0.1757,0.1727,0.1659,0.1678,0.1693,0.161,0.152,0.1448,0,0,0,0,0,0.0923,0.0912,0.0935,0.095,0.0991,0.1016,0.1085,0.1128,0.1254,0.126,0.1343,0.1417,0.1485,0.1555,0.1532,0.1655,0.1724,0.1617,0.1651,0.1763,0.1778,0.1695,0,0,0,0,0,0,0.0882,0.0899,0.0898,0.0854,0.0851,0.0865,0.0908,0.0987,0.0998,0.1151,0.1203,0.1317,0.1411,0.1494,0.1505,0.1524,0.151,0.1708,0.1704,0.1755,0.1768,0.178,0.17,0,0,0,0,0]},{"header":{"parameterUnit":"m.s-1","parameterCategory":2,"la1":30.2991,"la2":30.254,"lo1":-89.0895,"lo2":-89.0444,"dy":0.0017,"dx":0.0017,"nx":28,"ny":28,"refTime":"2025-05-27T21:00:00:Z","depth":"4","parameterNumber":3,"parameterNumberName":"V-component_of_CURRENTS"},"data":[0,0,0,0,0,0,0,0,0,0,0,0,0,0,0,0,0,0,0,0,0,0,0,0,0,0,0,0,0,0,0,0,0,0,0,0,0,0,0,0,0,0,0,0,0,0,0,0,0,0,0,0,0,0,0,0,0,0,0.015,0.015,0,0.0148,0.0148,0.0148,0.0142,0.0142,0.0142,0.0142,0.0115,0.0114,0.0113,0,0,0,0,0,0,0,0,0,0,0,0,0,0.0124,0.0124,0.015,0.015,0.015,0.0148,0.0148,0.0148,0.0142,0.0142,0.0142,0.0142,0.0115,0.0114,0.0113,0,0,0,0,0,0,0,0,0,0,0,0,0,0.0129,0.0125,0.015,0.0147,0.0147,0.0148,0.0148,0.0148,0.0142,0.0142,0.0142,0.0142,0.0115,0.0114,0.0113,0.011,0,0,0.011,0.011,0,0,0,0,0,0,0,0,0.0129,0.013,0.0148,0.0148,0.0147,0.0146,0.0129,0.0134,0.0142,0.0144,0.0142,0.0142,0.0123,0.0121,0.0121,0.0109,0.0108,0.011,0.011,0.0109,0.0109,0,0,0,0,0,0,0,0.0129,0.013,0.0149,0.0148,0.0147,0.0137,0.0138,0.013,0.0133,0.0143,0.0143,0.0144,0.0123,0.0122,0.012,0.0107,0.011,0.0109,0.0109,0.0108,0.0096,0.0096,0,0,0,0,0,0,0.0132,0.013,0.0149,0.0149,0.0138,0.0138,0.0139,0.0146,0.0134,0.0132,0.0144,0.0143,0.0124,0.0122,0.0119,0.013,0.0109,0.0108,0.0108,0.0096,0.0096,0.0096,0,0,0,0,0,0,0.0131,0.0133,0.0149,0.0139,0.0141,0.0139,0.0147,0.0146,0.015,0.0134,0.0132,0.0149,0.0124,0.0121,0.0118,0.0129,0.0108,0.0107,0.0095,0.0096,0.0096,0.0142,0,0,0,0,0,0,0.013,0.0133,0.014,0.014,0.0141,0.0157,0.0147,0.0146,0.015,0.015,0.0138,0.0135,0.0123,0.0119,0.0117,0.0127,0.0106,0.0095,0.0095,0.0096,0.0141,0.0144,0.0148,0,0,0,0,0,0.013,0.014,0.014,0.0143,0.015,0.0157,0.0158,0.0155,0.0151,0.0157,0.0147,0.0136,0.012,0.0119,0.0116,0.0126,0.0095,0.0095,0.0096,0.0139,0.0144,0.0147,0,0,0,0,0,0,0.013,0.0141,0.0141,0.0154,0.0158,0.0157,0.0162,0.0159,0.0157,0.0157,0.014,0.0137,0.0138,0.0124,0.0123,0.0122,0.0105,0.0105,0.0139,0.0143,0.0146,0.0155,0.0106,0,0,0,0,0,0.0134,0.0147,0.0152,0.0162,0.0166,0.0164,0.0167,0.0167,0.0165,0.0164,0.0155,0.0144,0.0137,0.0134,0.0124,0.0126,0.011,0.0129,0.0132,0.0135,0.014,0.0127,0.013,0.0098,0.0098,0.0098,0,0,0.0135,0.0144,0.015,0.0163,0.0166,0.0178,0.0166,0.0175,0.0187,0.0161,0.0172,0.0156,0.0139,0.0142,0.014,0.0132,0.0135,0.0136,0.0139,0.0142,0.0128,0.0132,0.0134,0.0098,0.0098,0.0098,0,0,0.0148,0.0155,0.0171,0.0179,0.019,0.019,0.0195,0.0199,0.0203,0.021,0.0193,0.0185,0.0177,0.0166,0.016,0.0175,0.0154,0.0171,0.0199,0.0187,0.0189,0.0192,0.0174,0.0174,0.0174,0.0174,0.0174,0,0.0149,0.0174,0.0175,0.0194,0.0206,0.0198,0.0219,0.0222,0.0224,0.0229,0.022,0.0207,0.0189,0.0191,0.0195,0.0184,0.0172,0.0187,0.0192,0.0194,0.0196,0.0177,0.0177,0.0177,0.0176,0.0176,0.0176,0,0.0175,0.0196,0.0206,0.023,0.0241,0.0258,0.0264,0.0272,0.0273,0.0273,0.0277,0.0254,0.0246,0.0237,0.0222,0.0225,0.0211,0.0198,0.0184,0.0202,0.0181,0.018,0.018,0.0179,0.0178,0.0178,0,0,0.0176,0.0218,0.0223,0.0248,0.0265,0.0281,0.0299,0.0316,0.0331,0.0325,0.0343,0.0321,0.0306,0.0297,0.0273,0.026,0.0256,0.0238,0.0236,0.0226,0.0228,0.0201,0.0196,0.0247,0.0247,0.0248,0.0208,0,0.0197,0.0246,0.0259,0.0305,0.033,0.0336,0.0356,0.0368,0.0371,0.0383,0.0361,0.0367,0.033,0.033,0.0311,0.0273,0.0255,0.0267,0.0208,0.0206,0.0184,0.0195,0.0248,0.0207,0.0207,0.0207,0.0207,0,0.0221,0.0254,0.0305,0.0356,0.0367,0.0392,0.0427,0.0445,0.0451,0.0452,0.0446,0.0427,0.041,0.0378,0.0321,0.0332,0.0285,0.0249,0.0247,0.0205,0.0177,0.0185,0.0204,0.0204,0.0205,0.0205,0.0205,0,0.0232,0.0287,0.0334,0.0351,0.04,0.0428,0.0453,0.0468,0.0494,0.05,0.0518,0.0482,0.0478,0.0418,0.0341,0.0336,0.0275,0.0256,0.0184,0.0181,0.0197,0.0195,0.0214,0.0214,0.0214,0.0214,0.0215,0,0.0253,0.029,0.0348,0.0376,0.0435,0.0459,0.0513,0.0527,0.0555,0.0593,0.056,0.0574,0.049,0.0444,0.0364,0.0272,0.029,0.0191,0.0172,0.0217,0.0217,0.0196,0.0194,0.0213,0.0213,0.0214,0.0214,0,0.0258,0.0293,0.0354,0.042,0.0446,0.049,0.0566,0.0601,0.062,0.067,0.068,0.0649,0.0587,0.0492,0.039,0.0306,0.0218,0.0177,0.0234,0.0218,0.0125,0.0127,0.0098,0.0096,0.0095,0.0094,0.0094,0,0.0266,0.0298,0.0387,0.0432,0.0469,0.0538,0.0587,0.0631,0.0673,0.0715,0.0743,0.0703,0.0666,0.0509,0.0392,0.0234,0.0203,0.0146,0.0131,0.0131,0.0115,0.0118,0.012,0.0092,0.0092,0.0091,0.0091,0,0.028,0.0314,0.0366,0.0457,0.0526,0.06,0.0677,0.0715,0.0768,0.0787,0.08,0.0723,0.0648,0.0511,0.0385,0.027,0.0178,0.0134,0.0135,0.0121,0.0123,0.0109,0.0113,0.0088,0.0088,0.0088,0.0089,0,0.029,0.0328,0.0401,0.0482,0.0567,0.0649,0.0688,0.0749,0.0793,0.0839,0.0837,0.0761,0.0713,0.053,0.0417,0.0297,0.0257,0.02,0.0197,0.02,0.0231,0.025,0.024,0,0,0,0,0,0.0297,0.0345,0.0422,0.0516,0.06,0.0654,0.0743,0.0776,0.0829,0.0845,0.0845,0.0777,0.0613,0.0542,0.0419,0.0379,0.0223,0.0225,0.0153,0.0068,0.0072,0.0087,0,0,0,0,0,0,0.0304,0.0372,0.0418,0.0529,0.0596,0.0693,0.0755,0.0792,0.0801,0.0832,0.0752,0.0722,0.0565,0.0687,0.041,0.0374,0.0304,0.0155,0.0151,0.0065,0.0069,0.0072,0.009,0,0,0,0,0]}]]